Retour au catalogue

STARLINK-30573

ActifCommunicationsVLEO
NORAD 58058·PAYLOAD·🇺🇸 United States

Lancé Oct 13, 2023 depuis Cape Canaveral Space Force Station

Loading…

Prochains Passages (prochaines 24 heures)

TLE

FraisSource: CelesTrak SupGP

Époque: Sep 14, 2026, 22:39 UTC

1 58058C 23158H   26257.94423611 -.00108400  00000+0 -39194-2 0  2576
2 58058  43.0019  38.1601 0001766 280.8926 125.3505 15.27689647    16

Suivez STARLINK-30573 en temps réel avec AllMySat

Download on the App Store